World > North America > United States > Texas   City of Dalhart, TX

Dalhart, Texas Regional Weather

Lat: 36.06N, Lon: 102.51W
Wx Zone: TXZ001Web Search
Dalhart Weather Warning NWS WEATHER ALERT FOR THE DALHART, TX AREA - Issued: 358 AM CDT Sun Jun 13 2021 Dalhart Weather Warning  

Helpful Tip: Abbreviated, 7 Day, 14 Day Forecasts. There is a weather forecast for every taste.

Feedback


°F Click to change Dalhart hourly weather to Imperial units.Click to change Dalhart hourly weather to Metric units. °C
Dalhart Weather Map
UTC Time: 6/13/2021, 09:11
Your Time:

Dalhart, TX Regional Weather

Expires:202106131000;;189193
ASUS44 KSJT 130910
RWRSJT
WEST CENTRAL TEXAS REGIONAL WEATHER ROUNDUP
NATIONAL WEATHER SERVICE SAN ANGELO TX
400 AM CDT SUN JUN 13 2021

NOTE: "FAIR" INDICATES FEW OR NO CLOUDS BELOW 12,000 FEET WITH NO
SIGNIFICANT WEATHER AND/OR OBSTRUCTIONS TO VISIBILITY.


TXZ001-004-007-008-010-012-014-016-OKZ002-131000-
TEXAS PANHANDLE/OKLAHOMA PANHANDLE
  
CITY           SKY/WX    TMP DP  RH WIND       PRES   REMARKS
AMARILLO       MOCLDY    69  57  65 E21G30    30.06F                  
BORGER         LGT RAIN  70  61  73 SE9       30.11F                  
CANADIAN       TSTM      67  63  86 SW13      30.11F                  
DALHART        CLOUDY    66  57  72 SE12      30.13S                  
DUMAS          CLOUDY    68  55  62 E12       30.12F                  
GUYMON         NOT AVBL                                               
HEREFORD       CLOUDY    68  60  76 E8        30.12R                  
PAMPA          TSTM      67  64  91 S6        30.16F                  
PERRYTON       CLOUDY    66  60  79 W16       30.06F                  
$$


SKY/WX - Weather  TMP - Temperature  DP - Dew Point  RH - Relative Humidity
WIND - Wind Direction/Speed PRES - Barometric Pressure VSB - Visibility
WCI - Wind Chill Index E13G22 Wind - East Wind 13 mph/Gusts of 22 mph